STARLINK-1664

Last updated on Fri Nov 06 2020 00:02:03 GMT+0000 (Coordinated Universal Time)

1 46553U 20070X 20310.83334491 -.00034566 00000-0 -37312-3 0 9998 2 46553 53.0005 292.9488 0001125 76.8329 16.8174 15.62762725 5582
UTC large
Height (km)
Speed (km/s)
/
Latitude / Longitude
Inclination (degrees)
Orbital Period (minutes)
Azimuth
Elevation
Range (km)
Doppler Factor

Next 0 passes for location: London (51.5072 / 0.1276)

Sorry there are no passes over London.